64013000, 5301503, 2016-12-12 00:00:00, 13.35760, 109.26660,   0,  11,   1, -5.00, 1008.00, 14.80, 1,   8, 255, 0.000
64013000, 5301503, 2016-12-12 01:00:00, 13.35780, 109.26660,   0,  12,   2, -5.00, 1009.20, 14.80, 1,   1, 255, 0.000
64013000, 5301503, 2016-12-12 02:00:00, 13.35760, 109.26660,   0,  11,   1, -5.00, 1009.90, 14.80, 0,   8, 255, 0.000
64013000, 5301503, 2016-12-12 03:00:00, 13.35760, 109.26660,   0,  10,   1, -5.00, 1009.90, 14.80, 0,   8, 255, 0.000
64013000, 5301503, 2016-12-12 04:00:00, 13.35760, 109.26660,   0,  10,   1, -5.00, 1009.40, 14.80, 0,   8, 255, 0.000
64013000, 5301503, 2016-12-12 05:00:00, 13.35760, 109.26660,   0,  11,   1, -5.00, 1008.80, 14.80, 0,   8, 255, 0.000
64013000, 5301503, 2016-12-12 06:00:00, 13.35760, 109.26660,   0,  11,   1, -5.00, 1007.90, 14.80, 1,  11, 255, 0.000
64013000, 5301503, 2016-12-12 07:00:00, 13.35760, 109.26660,   0,  11,   1, -5.00, 1006.90, 14.80, 0,  10, 255, 0.000
64013000, 5301503, 2016-12-12 08:00:00, 13.35760, 109.26660,   0,  10,   1, -5.00, 1006.40, 14.80, 1,  14, 255, 0.000
64013000, 5301503, 2016-12-12 09:00:00, 13.35760, 109.26660,   0,  11,   1, -5.00, 1006.90, 14.80, 0,   8, 255, 0.000
64013000, 5301503, 2016-12-12 10:00:00, 13.35760, 109.26660,   0,  10,   1, -5.00, 1007.10, 14.80, 0,   9, 255, 0.000
64013000, 5301503, 2016-12-12 11:00:00, 13.35760, 109.26660,   0,  11,   1, -5.00, 1007.40, 14.80, 0,   9, 255, 0.000
64013000, 5301503, 2016-12-12 12:00:00, 13.35760, 109.26660,   0,  10,   1, -5.00, 1008.30, 14.80, 0,   1, 255, 0.000
64013000, 5301503, 2016-12-12 13:00:00, 13.35760, 109.26660,   0,  12,   1, -5.00, 1009.10, 14.80, 1,   8, 255, 0.000
64013000, 5301503, 2016-12-12 14:00:00, 13.35760, 109.26660,   0,  11,   1, -5.00, 1009.60, 14.80, 1,   7, 255, 0.000
64013000, 5301503, 2016-12-12 15:00:00, 13.35760, 109.26660,   0,  11,   1, -5.00, 1009.40, 14.80, 0,  10, 255, 0.000
64013000, 5301503, 2016-12-12 16:00:00, 13.35760, 109.26660,   0,  11,   1, -5.00, 1009.20, 14.80, 1,  11, 255, 0.000
64013000, 5301503, 2016-12-12 17:00:00, 13.35760, 109.26660,   0,  11,   1, -5.00, 1008.80, 14.80, 1,  14, 255, 0.000
64013000, 5301503, 2016-12-12 18:00:00, 13.35760, 109.26660,   0,  11,   1, -5.00, 1008.20, 14.80, 1,  18, 255, 0.000
64013000, 5301503, 2016-12-12 19:00:00, 13.35760, 109.26660,   0,  12,   1, -5.00, 1007.80, 14.80, 0,  12, 255, 0.000
64013000, 5301503, 2016-12-12 20:00:00, 13.35760, 109.26660,   0,  10,   1, -5.00, 1007.00, 14.80, 1,   8, 255, 0.000
64013000, 5301503, 2016-12-12 21:00:00, 13.35760, 109.26660,   0,  11,   1, -5.00, 1007.10, 14.80, 1,   8, 255, 0.000
64013000, 5301503, 2016-12-12 22:00:00, 13.35780, 109.26660,   0,  12,   1, -5.00, 1006.60, 14.80, 1,  12, 255, 0.000
64013000, 5301503, 2016-12-12 23:00:00, 13.35760, 109.26660,   0,  10,   1, -5.00, 1006.90, 14.80, 0,   7, 255, 0.000
64013000, 5301503, 2016-12-13 00:00:00, 13.35760, 109.26660,   0,  11,   1, -5.00, 1007.90, 14.80, 1,  11, 255, 0.000
64013000, 5301503, 2016-12-13 01:00:00, 13.35760, 109.26660,   0,  12,   1, -5.00, 1009.10, 14.80, 1,   8, 255, 0.000
64013000, 5301503, 2016-12-13 02:00:00, 13.35760, 109.26660,   0,  11,   1, -5.00, 1009.50, 14.80, 0,  11, 255, 0.000
64013000, 5301503, 2016-12-13 03:00:00, 13.35760, 109.26660,   0,  10,   1, -5.00, 1009.20, 14.80, 0,  13, 255, 0.000
64013000, 5301503, 2016-12-13 04:00:00, 13.35780, 109.26660,   0,  11,   1, -5.00, 1008.60, 14.80, 0,   8, 255, 0.000
64013000, 5301503, 2016-12-13 05:00:00, 13.35760, 109.26660,   0,  11,   1, -5.00, 1007.70, 14.80, 0,   8, 255, 0.000
64013000, 5301503, 2016-12-13 06:00:00, 13.35760, 109.26660,   0,  11,   1, -5.00, 1007.30, 14.80, 0,  10, 255, 0.000
64013000, 5301503, 2016-12-13 07:00:00, 13.35780, 109.26660,   0,  11,   1, -5.00, 1006.60, 14.80, 0,  14, 255, 0.000
64013000, 5301503, 2016-12-13 08:00:00, 13.35760, 109.26660,   0,  10,   1, -5.00, 1006.70, 14.80, 0,   9, 255, 0.000
64013000, 5301503, 2016-12-13 09:00:00, 13.35760, 109.26660,   0,  11,   1, -5.00, 1006.60, 14.80, 0,  10, 255, 0.000
64013000, 5301503, 2016-12-13 10:00:00, 13.35760, 109.26660,   0,  10,   1, -5.00, 1007.10, 14.80, 1,   9, 255, 0.000
64013000, 5301503, 2016-12-13 11:00:00, 13.35760, 109.26660,   0,  11,   1, -5.00, 1007.50, 14.80, 1,   1, 255, 0.000
64013000, 5301503, 2016-12-13 12:00:00, 13.35760, 109.26660,   0,  11,   1, -5.00, 1008.50, 14.80, 0,   9, 255, 0.000
64013000, 5301503, 2016-12-13 13:00:00, 13.35760, 109.26660,   0,  12,   1, -5.00, 1009.20, 14.80, 0,  10, 255, 0.000
64013000, 5301503, 2016-12-13 14:00:00, 13.35760, 109.26660,   0,  11,   1, -5.00, 1009.60, 14.80, 0,  10, 255, 0.000
64013000, 5301503, 2016-12-13 15:00:00, 13.35760, 109.26660,   0,  10,   2, -5.00, 1009.80, 14.80, 1,   1, 255, 0.000
64013000, 5301503, 2016-12-13 16:00:00, 13.35760, 109.26660,   0,  11,   1, -5.00, 1009.20, 14.80, 0,   8, 255, 0.000
64013000, 5301503, 2016-12-13 17:00:00, 13.35760, 109.26660,   0,  11,   1, -5.00, 1009.20, 14.80, 0,   8, 255, 0.000
64013000, 5301503, 2016-12-13 18:00:00, 13.35760, 109.26660,   0,  11,   1, -5.00, 1008.70, 14.80, 0,   8, 255, 0.000
64013000, 5301503, 2016-12-13 19:00:00, 13.35760, 109.26660,   0,  11,   1, -5.00, 1008.30, 14.80, 0,  12, 255, 0.000
64013000, 5301503, 2016-12-13 20:00:00, 13.35760, 109.26660,   0,  11,   1, -5.00, 1008.10, 14.80, 0,   9, 255, 0.000
64013000, 5301503, 2016-12-13 21:00:00, 13.35760, 109.26660,   0,  11,   1, -5.00, 1008.20, 14.80, 1,   1, 255, 0.000
64013000, 5301503, 2016-12-13 22:00:00, 13.35760, 109.26660,   0,  12,   1, -5.00, 1008.50, 14.80, 1,   8, 255, 0.000
64013000, 5301503, 2016-12-13 23:00:00, 13.35760, 109.26660,   0,  10,   1, -5.00, 1009.10, 14.80, 1,   1, 255, 0.000
64013000, 5301503, 2016-12-14 00:00:00, 13.35760, 109.26660,   0,  11,   1, -5.00, 1010.00, 14.80, 1,  12, 255, 0.000
64013000, 5301503, 2016-12-14 01:00:00, 13.35760, 109.26660,   0,  12,   2, -5.00, 1010.90, 14.80, 0,   8, 255, 0.000
64013000, 5301503, 2016-12-14 02:00:00, 13.35760, 109.26660,   0,  11,   1, -5.00, 1011.80, 14.80, 0,   8, 255, 0.000
64013000, 5301503, 2016-12-14 03:00:00, 13.35760, 109.26660,   0,  10,   1, -5.00, 1011.70, 14.80, 0,   8, 255, 0.000
64013000, 5301503, 2016-12-14 04:00:00, 13.35760, 109.26660,   0,  10,   1, -5.00, 1010.80, 14.80, 0,  11, 255, 0.000
64013000, 5301503, 2016-12-14 05:00:00, 13.35760, 109.26660,   0,  11,   1, -5.00, 1009.70, 14.80, 1,  10, 255, 0.000
64013000, 5301503, 2016-12-14 06:00:00, 13.35760, 109.26660,   0,  11,   1, -5.00, 1009.10, 14.80, 1,   9, 255, 0.000
64013000, 5301503, 2016-12-14 07:00:00, 13.35760, 109.26660,   0,  11,   1, -5.00, 1008.00, 14.80, 1,   9, 255, 0.000
64013000, 5301503, 2016-12-14 08:00:00, 13.35760, 109.26660,   0,  10,   1, -5.00, 1007.70, 14.80, 0,  11, 255, 0.000
64013000, 5301503, 2016-12-14 09:00:00, 13.35760, 109.26660,   0,  11,   1, -5.00, 1007.80, 14.80, 1,   4, 255, 0.000
64013000, 5301503, 2016-12-14 10:00:00, 13.35760, 109.26660,   0,  10,   1, -5.00, 1008.10, 14.80, 0,   9, 255, 0.000
64013000, 5301503, 2016-12-14 11:00:00, 13.35760, 109.26660,   0,  11,   1, -5.00, 1008.60, 14.80, 0,   7, 255, 0.000
64013000, 5301503, 2016-12-14 12:00:00, 13.35760, 109.26660,   0,  11,   1, -5.00, 1009.50, 14.80, 0,   7, 255, 0.000
64013000, 5301503, 2016-12-14 13:00:00, 13.35760, 109.26660,   0,  12,   1, -5.00, 1010.60, 14.80, 0,   7, 255, 0.000
64013000, 5301503, 2016-12-14 14:00:00, 13.35760, 109.26660,   0,  11,   1, -5.00, 1011.00, 14.80, 0,  12, 255, 0.000
64013000, 5301503, 2016-12-14 15:00:00, 13.35760, 109.26660,   0,  10,   1, -5.00, 1011.10, 14.80, 0,  11, 255, 0.000
64013000, 5301503, 2016-12-14 16:00:00, 13.35760, 109.26660,   0,  11,   2, -5.00, 1010.90, 14.80, 0,  10, 255, 0.000
64013000, 5301503, 2016-12-14 17:00:00, 13.35760, 109.26660,   0,  11,   1, -5.00, 1010.70, 14.80, 0,   7, 255, 0.000
64013000, 5301503, 2016-12-14 18:00:00, 13.35760, 109.26660,   0,  11,   1, -5.00, 1010.50, 14.80, 0,  15, 255, 0.000
64013000, 5301503, 2016-12-14 19:00:00, 13.35760, 109.26660,   0,  11,   1, -5.00, 1009.80, 14.80, 0,  10, 255, 0.000
64013000, 5301503, 2016-12-14 20:00:00, 13.35760, 109.26660,   0,  11,   1, -5.00, 1009.70, 14.80, 1,  10, 255, 0.000
64013000, 5301503, 2016-12-14 21:00:00, 13.35760, 109.26660,   0,  11,   1, -5.00, 1009.70, 14.80, 0,   9, 255, 0.000
64013000, 5301503, 2016-12-14 22:00:00, 13.35780, 109.26660,   0,  11,   1, -5.00, 1010.30, 14.80, 0,   1, 255, 0.000
64013000, 5301503, 2016-12-14 23:00:00, 13.35760, 109.26660,   0,  11,   1, -5.00, 1010.60, 14.80, 0,  11, 255, 0.000
64013000, 5301503, 2016-12-15 00:00:00, 13.35760, 109.26660,   0,  10,   1, -5.00, 1011.00, 14.80, 1,  10, 255, 0.000
64013000, 5301503, 2016-12-15 01:00:00, 13.35760, 109.26660,   0,  12,   1, -5.00, 1011.60, 14.80, 1,   1, 255, 0.000
64013000, 5301503, 2016-12-15 02:00:00, 13.35760, 109.26660,   0,  11,   1, -5.00, 1012.00, 14.80, 1,   8, 255, 0.000
64013000, 5301503, 2016-12-15 03:00:00, 13.35760, 109.26660,   0,  10,   1, -5.00, 1012.30, 14.80, 0,   8, 255, 0.000
64013000, 5301503, 2016-12-15 04:00:00, 13.35760, 109.26660,   0,  11,   1, -5.00, 1012.20, 14.80, 1,  10, 255, 0.000
64013000, 5301503, 2016-12-15 05:00:00, 13.35760, 109.26660,   0,  11,   1, -5.00, 1011.60, 14.80, 0,  12, 255, 0.000
64013000, 5301503, 2016-12-15 06:00:00, 13.35760, 109.26660,   0,  11,   1, -5.00, 1010.60, 14.80, 1,  10, 255, 0.000
64013000, 5301503, 2016-12-15 07:00:00, 13.35760, 109.26660,   0,  11,   1, -5.00, 1010.30, 14.80, 1,   9, 255, 0.000
